Tampa, FL

6:16 AM EST on December 06, 2016 (GMT -0500)
MacDill Air Force Base

Weather History for KMCF - January, 2013

Change the Weather History Date:

Thursday, January 17, 2013

  Actual Average Record
Temperature  
Mean Temperature 62 °F -  
Max Temperature 69 °F 67 °F 77 °F (1999)
Min Temperature 54 °F 48 °F 36 °F (2014)
Degree Days  
Heating Degree Days 2    
Growing Degree Days 12 (Base 50)    
Moisture  
Dew Point 63 °F    
Average Humidity 97    
Maximum Humidity 100    
Minimum Humidity 71    
Precipitation  
Precipitation 0.05 in - - ()
Sea Level Pressure  
Sea Level Pressure 30.06 in    
Wind  
Wind Speed 4 mph (NW)    
Max Wind Speed 21 mph    
Max Gust Speed 33 mph    
Visibility 5 miles    
Events Fog , Rain    
Averages and records for this station are not official NWS values.
T = Trace of Precipitation, MM = Missing Value Source: NWS Daily Summary

Daily Weather History Graph

Daily Weather History Graph

Search for Another Location

Airport or City:

Trip Planner

Search our weather history database for the weather conditions in past years. The results will help you decide how hot, cold, wet, or windy it might be!

Date:

Astronomy

Jan. 17, 2013 Rise Set
Actual Time 7:22 AM EST 5:58 PM EST
Civil Twilight 6:56 AM EST 6:23 PM EST
Nautical Twilight 6:28 AM EST 6:52 PM EST
Astronomical Twilight 6:00 AM EST 7:20 PM EST
Moon 11:05 AM EST (1/17) No Moon Set
Length of Visible Light 11h 26m
Length of Day
10h 36m
Waxing Crescent, 37% of the Moon is Illuminated
Jan 17
Waxing Crescent
Jan 18
First Quarter
Jan 26
Full
Feb 3
Last Quarter
Feb 10
New

Hourly Weather History & Observations

Time (EST) Temp. Dew Point Humidity Pressure Visibility Wind Dir Wind Speed Gust Speed Precip Events Conditions
12:04 AM 62.6 °F 62.6 °F 100% 30.05 in 2.0 mi Calm Calm - N/A   Clear
12:05 AM 62.6 °F 62.6 °F 100% 30.05 in 1.8 mi Calm Calm - N/A   Clear
12:07 AM 62.6 °F 62.6 °F 100% 30.05 in 1.2 mi Calm Calm - N/A   Clear
12:10 AM 62.6 °F 62.6 °F 100% 30.05 in 1.2 mi Calm Calm - N/A   Clear
12:11 AM 62.6 °F 62.6 °F 100% 30.05 in 1.0 mi Calm Calm - N/A   Clear
12:17 AM 62.6 °F 62.6 °F 100% 30.05 in 0.8 mi Calm Calm - N/A   Clear
12:20 AM 62.6 °F 62.6 °F 100% 30.05 in 0.5 mi Calm Calm - N/A Fog Fog
12:22 AM 62.6 °F 62.6 °F 100% 30.05 in 0.5 mi Calm Calm - N/A Fog Fog
12:29 AM 62.6 °F 62.6 °F 100% 30.05 in 0.8 mi Calm Calm - N/A   Clear
12:34 AM 62.6 °F 62.6 °F 100% 30.05 in 0.5 mi Calm Calm - N/A Fog Fog
12:52 AM 62.6 °F 62.6 °F 100% 30.05 in 0.2 mi Calm Calm - N/A Fog Fog
12:55 AM 62.6 °F 62.2 °F 99% 30.05 in 0.2 mi Calm Calm - N/A Fog Fog
12:58 AM 62.6 °F 62.6 °F 100% 30.05 in 0.5 mi Calm Calm - N/A Fog Fog
1:28 AM 62.6 °F 62.6 °F 100% 30.04 in 0.8 mi Calm Calm - N/A   Clear
1:36 AM 62.6 °F 62.6 °F 100% 30.04 in 0.5 mi Calm Calm - N/A Fog Fog
1:41 AM 62.6 °F 62.6 °F 100% 30.04 in 0.5 mi Calm Calm - N/A Fog Fog
1:42 AM 62.6 °F 62.6 °F 100% 30.05 in 0.5 mi Calm Calm - N/A Fog Fog
1:43 AM 62.6 °F 62.6 °F 100% 30.05 in 0.5 mi Calm Calm - N/A Fog Fog
1:46 AM 62.6 °F 62.6 °F 100% 30.05 in 0.8 mi Calm Calm - N/A   Clear
1:52 AM 62.6 °F 62.6 °F 100% 30.05 in 0.5 mi Calm Calm - N/A Fog Fog
1:53 AM 62.6 °F 62.6 °F 100% 30.05 in 0.5 mi Calm Calm - N/A Fog Fog
1:54 AM 62.6 °F 62.6 °F 100% 30.05 in 0.5 mi Calm Calm - N/A Fog Fog
1:55 AM 62.2 °F 61.9 °F 99% 30.05 in 0.5 mi Calm Calm - N/A Fog Fog
2:06 AM 62.6 °F 60.8 °F 94% 30.05 in 0.8 mi Calm Calm - N/A   Clear
2:12 AM 62.6 °F 62.6 °F 100% 30.05 in 0.8 mi Calm Calm - N/A   Clear
2:21 AM 64.4 °F 64.4 °F 100% 30.04 in 0.5 mi Calm Calm - N/A Fog Fog
2:23 AM 66.2 °F 66.2 °F 100% 30.04 in 0.5 mi Calm Calm - N/A Fog Fog
2:24 AM 66.2 °F 66.2 °F 100% 30.04 in 0.5 mi Calm Calm - N/A Fog Fog
2:34 AM 66.2 °F 66.2 °F 100% 30.04 in 0.2 mi Calm Calm - N/A Fog Fog
2:39 AM 64.4 °F 64.4 °F 100% 30.04 in 0.5 mi Calm Calm - N/A Fog Fog
2:40 AM 64.4 °F 64.4 °F 100% 30.04 in 0.5 mi Calm Calm - N/A Fog Fog
2:44 AM 64.4 °F 64.4 °F 100% 30.04 in 0.8 mi Calm Calm - N/A   Partly Cloudy
2:46 AM 64.4 °F 64.4 °F 100% 30.04 in 1.0 mi Calm Calm - N/A   Partly Cloudy
2:47 AM 64.4 °F 64.4 °F 100% 30.04 in 1.2 mi Calm Calm - N/A   Partly Cloudy
2:48 AM 64.4 °F 64.4 °F 100% 30.04 in 1.5 mi Calm Calm - N/A   Partly Cloudy
2:49 AM 64.4 °F 64.4 °F 100% 30.04 in 1.2 mi Calm Calm - N/A   Partly Cloudy
2:52 AM 64.4 °F 64.4 °F 100% 30.04 in 1.0 mi Calm Calm - N/A   Partly Cloudy
2:53 AM 64.4 °F 64.4 °F 100% 30.04 in 0.8 mi Calm Calm - N/A   Partly Cloudy
2:55 AM 63.9 °F 63.9 °F 100% 30.04 in 0.5 mi Calm Calm - N/A Fog Fog
2:58 AM 64.4 °F 64.4 °F 100% 30.04 in 0.5 mi Calm Calm - N/A Fog Fog
2:59 AM 64.4 °F 64.4 °F 100% 30.04 in 0.5 mi Calm Calm - N/A Fog Fog
3:03 AM 64.4 °F 64.4 °F 100% 30.04 in 0.5 mi Calm Calm - N/A Fog Fog
3:04 AM 64.4 °F 64.4 °F 100% 30.03 in 0.5 mi Calm Calm - N/A Fog Fog
3:14 AM 62.6 °F 62.6 °F 100% 30.04 in 0.5 mi Calm Calm - N/A Fog Fog
3:15 AM 62.6 °F 62.6 °F 100% 30.04 in 0.2 mi Calm Calm - N/A Fog Fog
3:17 AM 62.6 °F 62.6 °F 100% 30.03 in 0.5 mi Calm Calm - N/A Fog Fog
3:25 AM 64.4 °F 64.4 °F 100% 30.04 in 0.8 mi Calm Calm - N/A   Clear
3:31 AM 64.4 °F 64.4 °F 100% 30.04 in 0.5 mi Calm Calm - N/A Fog Fog
3:55 AM 66.2 °F 66.2 °F 100% 30.04 in 0.5 mi Calm Calm - N/A Fog Fog
4:07 AM 66.2 °F 66.2 °F 100% 30.03 in 0.5 mi Calm Calm - N/A Fog Fog
4:09 AM 66.2 °F 66.2 °F 100% 30.03 in 0.8 mi Calm Calm - N/A   Partly Cloudy
4:12 AM 68.0 °F 68.0 °F 100% 30.03 in 1.0 mi WSW 3.5 mph - N/A   Partly Cloudy
4:14 AM 68.0 °F 68.0 °F 100% 30.03 in 1.2 mi SW 4.6 mph - N/A   Partly Cloudy
4:15 AM 68.0 °F 68.0 °F 100% 30.03 in 1.5 mi SW 4.6 mph - N/A   Partly Cloudy
4:21 AM 68.0 °F 68.0 °F 100% 30.03 in 1.8 mi SW 4.6 mph - N/A   Partly Cloudy
4:23 AM 68.0 °F 68.0 °F 100% 30.03 in 2.0 mi SW 3.5 mph - N/A   Partly Cloudy
4:26 AM 68.0 °F 68.0 °F 100% 30.03 in 3.0 mi Calm Calm - N/A   Partly Cloudy
4:30 AM 66.2 °F 66.2 °F 100% 30.03 in 2.5 mi Calm Calm - N/A   Partly Cloudy
4:32 AM 66.2 °F 66.2 °F 100% 30.03 in 1.5 mi Calm Calm - N/A   Partly Cloudy
4:33 AM 66.2 °F 66.2 °F 100% 30.03 in 1.2 mi Calm Calm - N/A   Partly Cloudy
4:34 AM 66.2 °F 66.2 °F 100% 30.03 in 1.0 mi Calm Calm - N/A   Partly Cloudy
4:35 AM 66.2 °F 66.2 °F 100% 30.03 in 0.8 mi Calm Calm - N/A   Partly Cloudy
4:38 AM 66.2 °F 66.2 °F 100% 30.03 in 0.5 mi Calm Calm - N/A Fog Fog
4:39 AM 66.2 °F 66.2 °F 100% 30.03 in 0.5 mi Calm Calm - N/A Fog Fog
4:40 AM 66.2 °F 66.2 °F 100% 30.03 in 0.5 mi Calm Calm - N/A Fog Fog
4:46 AM 66.2 °F 66.2 °F 100% 30.03 in 0.2 mi Calm Calm - N/A Fog Fog
4:54 AM 66.2 °F 66.2 °F 100% 30.03 in 0.5 mi SW 5.8 mph - N/A Fog Fog
4:55 AM 66.6 °F 66.6 °F 100% 30.02 in 0.5 mi SW 5.8 mph - N/A Fog Fog
5:33 AM 66.2 °F 66.2 °F 100% 30.02 in 0.2 mi Calm Calm - N/A Fog Fog
5:49 AM 66.2 °F 66.2 °F 100% 30.02 in 0.5 mi SW 4.6 mph - N/A Fog Fog
5:55 AM 66.7 °F 66.7 °F 100% 30.02 in 0.5 mi SW 6.9 mph - N/A Fog Fog
5:57 AM 66.2 °F 66.2 °F 100% 30.02 in 0.8 mi SW 6.9 mph - N/A   Clear
5:58 AM 66.2 °F 66.2 °F 100% 30.02 in 0.8 mi SW 6.9 mph - N/A   Clear
5:59 AM 66.2 °F 66.2 °F 100% 30.02 in 1.0 mi SW 6.9 mph - N/A   Clear
6:01 AM 66.2 °F 66.2 °F 100% 30.02 in 1.2 mi SW 6.9 mph - N/A   Clear
6:02 AM 66.2 °F 66.2 °F 100% 30.02 in 1.8 mi SW 6.9 mph - N/A   Clear
6:03 AM 66.2 °F 66.2 °F 100% 30.02 in 3.0 mi SW 6.9 mph - N/A   Clear
6:55 AM 67.1 °F 67.1 °F 100% 30.03 in 10.0 mi WSW 8.1 mph - N/A   Clear
7:55 AM 67.6 °F 67.6 °F 100% 30.04 in 10.0 mi WSW 8.1 mph - N/A   Mostly Cloudy
8:55 AM 68.5 °F 68.5 °F 100% 30.05 in 10.0 mi West 9.2 mph - N/A   Mostly Cloudy
9:55 AM 69.6 °F 69.6 °F 100% 30.08 in 10.0 mi WNW 9.2 mph - N/A   Mostly Cloudy
10:17 AM 69.8 °F 69.8 °F 100% 30.09 in 10.0 mi North 10.4 mph - N/A   Light Drizzle
10:19 AM 69.8 °F 69.8 °F 100% 30.09 in 10.0 mi North 10.4 mph - N/A Rain Light Rain
10:32 AM 68.0 °F 68.0 °F 100% 30.10 in 5.0 mi North 11.5 mph 23.0 mph N/A Rain Light Rain
10:37 AM 68.0 °F 68.0 °F 100% 30.10 in 10.0 mi North 10.4 mph 18.4 mph N/A   Light Drizzle
10:55 AM 66.7 °F 66.7 °F 100% 30.10 in 8.0 mi NNW 10.4 mph 18.4 mph 0.03 in Rain Light Rain
11:02 AM 66.2 °F 66.2 °F 100% 30.10 in 6.0 mi North 10.4 mph 19.6 mph N/A Rain Light Rain
11:15 AM 66.2 °F 66.2 °F 100% 30.09 in 10.0 mi NW 10.4 mph - N/A   Mostly Cloudy
11:26 AM 66.2 °F 66.2 °F 100% 30.08 in 10.0 mi NW 12.7 mph 19.6 mph N/A   Mostly Cloudy
11:28 AM 66.2 °F 66.2 °F 100% 30.09 in 10.0 mi NNW 11.5 mph 19.6 mph N/A   Mostly Cloudy
11:45 AM 66.2 °F 66.2 °F 100% 30.08 in 10.0 mi NNW 15.0 mph - N/A   Overcast
11:49 AM 66.2 °F 66.2 °F 100% 30.08 in 10.0 mi NW 15.0 mph - N/A   Light Drizzle
11:55 AM 66.0 °F 65.8 °F 99% 30.08 in 10.0 mi NW 15.0 mph - 0.01 in   Light Drizzle
11:59 AM 66.2 °F 66.2 °F 100% 30.08 in 10.0 mi NW 13.8 mph 21.9 mph N/A   Light Drizzle
12:00 PM 66.2 °F 66.2 °F 100% 30.08 in 10.0 mi NW 15.0 mph 21.9 mph N/A   Overcast
12:07 PM 66.2 °F 66.2 °F 100% 30.08 in 10.0 mi NNW 11.5 mph 21.9 mph N/A   Overcast
12:12 PM 66.2 °F 66.2 °F 100% 30.08 in 10.0 mi NW 13.8 mph 19.6 mph N/A   Overcast
12:15 PM 66.2 °F 66.2 °F 100% 30.08 in 10.0 mi NW 11.5 mph 19.6 mph N/A   Light Drizzle
12:19 PM 66.2 °F 66.2 °F 100% 30.08 in 10.0 mi NNW 10.4 mph 19.6 mph N/A   Light Drizzle
12:43 PM 64.4 °F 64.4 °F 100% 30.07 in 10.0 mi NW 13.8 mph 19.6 mph N/A   Light Drizzle
12:47 PM 64.4 °F 64.4 °F 100% 30.07 in 8.0 mi NW 16.1 mph 21.9 mph N/A Rain Light Rain
12:55 PM 64.2 °F 64.0 °F 99% 30.07 in 6.0 mi NNW 13.8 mph 24.2 mph 0.00 in Rain Light Rain
12:59 PM 64.4 °F 64.4 °F 100% 30.07 in 6.0 mi NNW 15.0 mph 24.2 mph N/A Rain Light Rain
1:00 PM 64.4 °F 64.4 °F 100% 30.07 in 6.0 mi NNW 17.3 mph 23.0 mph N/A Rain Light Rain
1:24 PM 62.6 °F 62.6 °F 100% 30.06 in 9.0 mi NW 13.8 mph 25.3 mph N/A   Light Drizzle
1:33 PM 62.6 °F 62.6 °F 100% 30.06 in 10.0 mi NW 17.3 mph 25.3 mph N/A   Light Drizzle
1:40 PM 62.6 °F 60.8 °F 94% 30.06 in 10.0 mi NW 16.1 mph 25.3 mph N/A   Light Drizzle
1:45 PM 60.8 °F 60.8 °F 100% 30.06 in 10.0 mi NW 20.7 mph 27.6 mph N/A   Overcast
1:47 PM 60.8 °F 60.8 °F 100% 30.06 in 10.0 mi NW 19.6 mph 27.6 mph N/A   Overcast
1:48 PM 60.8 °F 60.8 °F 100% 30.06 in 10.0 mi NW 17.3 mph 27.6 mph N/A   Overcast
1:51 PM 60.8 °F 60.8 °F 100% 30.06 in 10.0 mi NNW 16.1 mph 27.6 mph N/A   Overcast
1:55 PM 61.2 °F 61.0 °F 99% 30.06 in 10.0 mi NW 17.3 mph 27.6 mph 0.01 in   Overcast
1:56 PM 60.8 °F 60.8 °F 100% 30.06 in 10.0 mi NW 17.3 mph 27.6 mph N/A   Overcast
2:00 PM 60.8 °F 60.8 °F 100% 30.06 in 10.0 mi NW 17.3 mph 26.5 mph N/A   Overcast
2:01 PM 60.8 °F 60.8 °F 100% 30.06 in 10.0 mi NW 18.4 mph 26.5 mph N/A   Light Drizzle
2:02 PM 60.8 °F 60.8 °F 100% 30.07 in 10.0 mi NW 18.4 mph 26.5 mph N/A   Light Drizzle
2:03 PM 60.8 °F 60.8 °F 100% 30.07 in 10.0 mi NW 17.3 mph 26.5 mph N/A   Overcast
2:05 PM 60.8 °F 60.8 °F 100% 30.07 in 10.0 mi NW 17.3 mph 26.5 mph N/A   Light Drizzle
2:11 PM 60.8 °F 60.8 °F 100% 30.07 in 10.0 mi NW 15.0 mph 27.6 mph N/A   Light Drizzle
2:37 PM 59.0 °F 59.0 °F 100% 30.08 in 10.0 mi NW 17.3 mph 33.4 mph N/A   Light Drizzle
2:41 PM 59.0 °F 59.0 °F 100% 30.08 in 10.0 mi NW 15.0 mph 33.4 mph N/A   Light Drizzle
2:45 PM 59.0 °F 57.2 °F 94% 30.08 in 10.0 mi NW 17.3 mph 33.4 mph N/A   Overcast
2:52 PM 59.0 °F 57.2 °F 94% 30.07 in 10.0 mi NW 11.5 mph 25.3 mph N/A   Overcast
2:55 PM 59.2 °F 57.4 °F 94% 30.07 in 10.0 mi NW 12.7 mph 23.0 mph 0.00 in   Overcast
3:25 PM 60.8 °F 57.2 °F 88% 30.07 in 10.0 mi NW 13.8 mph 19.6 mph N/A   Overcast
3:55 PM 61.2 °F 54.9 °F 80% 30.08 in 10.0 mi NW 18.4 mph 27.6 mph N/A   Overcast
3:59 PM 60.8 °F 53.6 °F 77% 30.09 in 10.0 mi NW 16.1 mph 27.6 mph N/A   Overcast
4:55 PM 61.0 °F 52.5 °F 74% 30.10 in 10.0 mi NW 15.0 mph 23.0 mph N/A   Overcast
5:55 PM 60.3 °F 50.7 °F 71% 30.11 in 10.0 mi NW 17.3 mph 24.2 mph N/A   Overcast
6:55 PM 59.4 °F 50.7 °F 73% 30.12 in 10.0 mi NW 13.8 mph 21.9 mph N/A   Scattered Clouds
7:55 PM 59.4 °F 51.3 °F 75% 30.14 in 10.0 mi NW 15.0 mph 23.0 mph N/A   Overcast
8:55 PM 58.6 °F 50.5 °F 74% 30.15 in 10.0 mi NNW 15.0 mph 26.5 mph N/A   Overcast
9:10 PM 59.0 °F 51.8 °F 77% 30.15 in 10.0 mi NW 16.1 mph 23.0 mph N/A   Overcast
9:55 PM 57.4 °F 50.0 °F 76% 30.17 in 10.0 mi NNW 19.6 mph 28.8 mph N/A   Overcast
10:11 PM 57.2 °F 48.2 °F 72% 30.17 in 10.0 mi NW 13.8 mph 24.2 mph N/A   Overcast
10:12 PM 57.2 °F 48.2 °F 72% 30.16 in 10.0 mi NNW 16.1 mph 24.2 mph N/A   Overcast
10:55 PM 56.7 °F 49.3 °F 76% 30.16 in 10.0 mi NNW 19.6 mph 25.3 mph N/A   Overcast
11:55 PM 54.5 °F 47.3 °F 77% 30.17 in 10.0 mi NNW 17.3 mph 25.3 mph N/A   Overcast